Regional Weather Roundup
Issued by NWS

Home | Current Version | Previous Version | Graphics & Text | Print | Product List | Glossary On
Versions: 1 2 3 4 5 6 7 8 9 10 11 12 13 14 15 16 17 18 19 20 21 22 23 24 25 26 27 28 29 30 31 32 33 34 35 36 37 38 39 40 41 42 43 44 45 46 47 48 49 50
000
ASUS44 KMEG 010510
RWRTN
TENNESSEE HOURLY STATE WEATHER ROUNDUP
NATIONAL WEATHER SERVICE MEMPHIS TN
1200 AM CDT FRI AUG 01 2014

TNZ002-004-019-021-049-052-054-088>092-010600-
WEST TENNESSEE

CITY           SKY/WX    TMP DP  RH WIND       PRES   REMARKS
MEMPHIS INTL   MOCLDY    72  67  84 N3        30.06S
NWS MEMPHIS      N/A     70 N/A N/A MISG        N/A
JACKSON        MOCLDY    68  65  90 CALM      30.07R
DYERSBURG      MOCLDY    70  61  73 CALM      30.08S
UNION CITY     CLEAR     64  64 100 CALM      30.07S
PARIS          PTCLDY    59  58  96 CALM      30.09S
LEXINGTON      CLEAR     64  63  94 CALM      30.07S
SAVANNAH       MOCLDY    67  67 100 CALM      30.07S
$$

TNZ008-025-027-028-033-062-065-066-010600-
NORTH MIDDLE TENNESSEE

CITY           SKY/WX    TMP DP  RH WIND       PRES   REMARKS
NASHVILLE      MOCLDY    69  62  78 CALM      30.08S
DICKSON        MOCLDY    64  61  88 CALM      30.09R
PORTLAND       CLEAR     64  61  88 CALM      30.08R
CLARKSVILLE    PTCLDY    69  61  75 CALM      30.08R
LEBANON        MOCLDY    64  60  87 CALM      30.07R
SMYRNA         PTCLDY    66  64  93 CALM      30.09R
MURFREESBORO   MOCLDY    68  64  86 CALM      30.08R
COOKEVILLE     CLEAR     64  63  94 CALM      30.09S
GALLATIN       MOCLDY    67  63  87 CALM      30.09R
CROSSVILLE     PTCLDY    65  60  84 CALM      30.14S HAZE
$$

TNZ061-075-076-078-094-096-097-010600-
SOUTH MIDDLE TENNESSEE

CITY           SKY/WX    TMP DP  RH WIND       PRES   REMARKS
LEWISBURG      MOCLDY    62  59  90 CALM      30.08R
FAYETTEVILLE   CLEAR     63  57  82 CALM      30.09R
TULLAHOMA      CLEAR     63  57  82 CALM      30.11R
WINCHESTER     CLEAR     66  63  88 CALM      30.09S
MCMINNVILLE    CLEAR     64  64 100 CALM      30.10R
COLUMBIA       CLEAR     66  64  94 CALM      30.07S
SHELBYVILLE    CLEAR     64  63  94 CALM      30.10R
$$

TNZ017-018-042-046-047-010600-
NORTHEAST TENNESSEE

CITY           SKY/WX    TMP DP  RH WIND       PRES   REMARKS
TRI CITIES     CLOUDY    66  60  81 CALM      30.14F
ELIZABETHTON   CLEAR     66  55  68 NE5       30.15F
$$

TNZ012-013-036-069-073-074-010600-
CENTRAL EAST TENNESSEE

CITY           SKY/WX    TMP DP  RH WIND       PRES   REMARKS
KNOXVILLE      CLOUDY    70  65  84 NE3       30.09R
OAK RIDGE      MOCLDY    68  64  87 CALM      30.11R
GATLINBURG     CLEAR     66  63  88 CALM      30.09S
MORRISTOWN     CLEAR     66  59  77 E6        30.12S
$$

TNZ083-085-099-010600-
SOUTHEAST TENNESSEE

CITY           SKY/WX    TMP DP  RH WIND       PRES   REMARKS
CHATTANOOGA    MOCLDY    72  66  81 CALM      30.09R
$$

SKY/WX REPORTED AS FAIR MEANS FEW OR NO CLOUDS BELOW
12 THOUSAND FEET.




USA.gov is the U.S. government's official web portal to all federal, state and local government web resources and services.